Weather Roundup
Issued by NWS Chicago, IL

Home | Current Version | Previous Version | Text Only | Print | Product List | Glossary Off
Versions: 1 2 3 4 5 6 7 8 9 10 11 12 13 14 15 16 17 18 19 20 21 22 23 24 25 26 27 28 29 30 31 32 33 34 35 36 37 38 39 40 41 42 43 44 45 46 47 48 49 50

000
NZUS59 KLOT 060703
HRRLOT

CHICAGO AREA WEATHER ROUNDUP
NATIONAL WEATHER SERVICE CHICAGO/ROMEOVILLE IL
200 AM CDT FRI MAY 06 2016

NOTE: "FAIR" INDICATES FEW OR NO CLOUDS BELOW 12,000 FEET WITH NO
SIGNIFICANT WEATHER AND/OR OBSTRUCTIONS TO VISIBILITY.

* THESE STATIONS ARE NOT UNDER NWS QUALITY CONTROL. THEY ALSO MAY NOT
  REPORT WEATHER SUCH AS PRECIPITATION OR FOG.

ILZ005-006-012>014-019>023-060800-
NORTHEAST ILLINOIS

CITY           SKY/WX    TMP DP  RH WIND       PRES   REMARKS
OHARE          CLEAR     46  39  76 SW3       29.97F
MIDWAY         CLEAR     49  39  68 SW3       29.98F
AURORA         CLEAR     44  40  85 CALM      29.99F
LANSING*       CLEAR     40  38  95 CALM      29.99S
WAUKEGAN       CLEAR     42  37  82 SW3       29.96F
DUPAGE AIRPORT CLEAR     44  39  82 CALM      29.98F
WHEELING       CLEAR     41  36  82 CALM      29.98F
$$

WIZ051-052-058>065-066-070>072-060800-
SOUTHEAST WISCONSIN

CITY           SKY/WX    TMP DP  RH WIND       PRES   REMARKS
MILWAUKEE      PTCLDY    48  36  63 SW7       29.95F
KENOSHA*       CLEAR     43  36  76 S6        29.96F
RACINE*        CLEAR     45  35  68 SW5       29.97F
BURLINGTON     CLEAR     39  38  98 CALM      29.96F
$$

INZ001>003-010>013-019-020-060800-
NORTHWEST INDIANA

CITY           SKY/WX    TMP DP  RH WIND       PRES   REMARKS
GARY*          NOT AVBL
MICHIGAN CITY* NOT AVBL
RENSSELAER*    NOT AVBL
VALPARAISO     CLEAR     41  39  93 W3        29.98F
$$

LMZ740>746-060800-
SOUTHERN LAKE MICHIGAN

STATION/POSITION TIME  SKY/WX   TEMP WIND        PRES    VSBY
                                AIR  DIR/SP/G
                 (UTC)          (F)  (DEG/KT/KT) (MB)    (MI)
HARRISON CRIB    0600            50  200/  3/  3   N/A
BURNHAM HARBOR   0600            48  230/  2/  2   N/A
CALUMET HARBOR   0600            47  230/  3/  3 1014.9S
BURNS HARBOR     0600            45  200/  2/  4 1015.9F
MICHIGAN CITY    0600            43  150/  2/  2   N/A
$$

ABBREVIATIONS USED IN REMARKS
   TC - TEMPERATURE IN CELSIUS
  WCI - WIND CHILL INDEX
   HX - HEAT INDEX
  VSB - VISIBILITY
$$




USA.gov is the U.S. government's official web portal to all federal, state and local government web resources and services.